Location: Unspecified
(41.1637°N, 24.2901°E)
Time: 02:35:19
(UTC+01:00)

ISS - Pass Details

Date: 14 November 2025
Orbit: 414 x 420 km, 51.6° (Epoch: 18 November)

Event Time Altitude Azimuth Distance (km) Brightness Sun altitude
Rises 17:23:01 0° 234° (SW) 2,341 1.3 -14.9°
Reaches altitude 10° 17:25:06 10° 235° (SW) 1,481 0.1 -15.3°
Maximum altitude 17:28:25 86° 323° (NW) 419 -3.8 -15.9°
Enters shadow 17:29:37 37° 51° (NE) 662 -3.2 -16.1°
